sat.trackr.live / text

‹ back to catalog

STARLINK-37015

NORAD 68825 · 2026-089Z

PAYLOAD ACTIVE UNKNOWN

§ Identity

Operator
Country
US
Launch date
2026-04-23
Launch site
AFWTR
Launch vehicle
Mass (kg)
RCS (m²)

Purposes: comms

External: N2YO · Heavens-Above · Gunter

§ Orbital elements

Epoch: 2026-05-25T02:26:25.081152Z

Period
91.42 min
Inclination
97.2845°
Eccentricity
0.0003613
Mean motion
15.75181680 rev/d
Perigee alt
341.7 km
Apogee alt
346.5 km
Semi-major
6,722.3 km
B*
1.1945e-3
RAAN
351.7772°
Arg perigee
86.2857°
Mean anomaly
273.8821°
Rev number
506

§ Raw data

STARLINK-370151 68825U 26089Z   26145.10167918  .00181862  00000+0  11945-2 0  99922 68825  97.2845 351.7772 0003613  86.2857 273.8821 15.75181680  5061

JSON: /api/v1/satellites/68825 · /tle

For live sub-satellite position, see the globe view (requires WebGL).

§ Visibility from observer

Set your observer location to see the next 7 days of passes ≥ 10°. The values pass through the URL so the page stays shareable.

No JS? Fill the form by hand. The geolocation button needs JavaScript.